C6031 KFMH-KFMH

Flight info

Callsign C6031
Flight time 0h 33m
Altitude 9000
Route VFR
Aircraft H60/L-SDE2E3FGRY/H

Departure

Time 2026-04-30 02:12
Airport Cape Cod Coast Guard Air Station (KFMH)

Arrival

Time 2026-04-30 02:45
Airport Cape Cod Coast Guard Air Station (KFMH)
Time Latitude Longitude Altitude Speed Heading
2026-04-30 02:04 41.66390 -70.52710 128 ft 0 kts 262°
2026-04-30 02:07 41.66389 -70.52713 133 ft 3 kts 260°
2026-04-30 02:07 41.66372 -70.52820 126 ft 15 kts 257°
2026-04-30 02:07 41.66359 -70.52893 127 ft 0 kts 255°
2026-04-30 02:10 41.66347 -70.52947 126 ft 2 kts 251°
2026-04-30 02:12 41.66324 -70.53022 138 ft 43 kts 253°
2026-04-30 02:12 41.65803 -70.53421 541 ft 123 kts 187°
2026-04-30 02:12 41.64900 -70.53206 868 ft 128 kts 167°
2026-04-30 02:12 41.64002 -70.52976 775 ft 130 kts 167°
2026-04-30 02:13 41.63111 -70.52763 771 ft 131 kts 167°
2026-04-30 02:13 41.62206 -70.52546 798 ft 138 kts 167°
2026-04-30 02:13 41.61056 -70.52247 624 ft 180 kts 167°
2026-04-30 02:13 41.59850 -70.51930 613 ft 176 kts 167°
2026-04-30 02:14 41.58644 -70.51609 615 ft 176 kts 167°
2026-04-30 02:14 41.57436 -70.51294 625 ft 176 kts 167°
2026-04-30 02:14 41.56233 -70.50980 621 ft 176 kts 167°
2026-04-30 02:14 41.55088 -70.50435 636 ft 174 kts 154°
2026-04-30 02:15 41.53977 -70.49776 620 ft 175 kts 154°
2026-04-30 02:15 41.52864 -70.49116 626 ft 176 kts 154°
2026-04-30 02:15 41.51745 -70.48455 622 ft 176 kts 154°
2026-04-30 02:15 41.50629 -70.47795 627 ft 176 kts 154°
2026-04-30 02:16 41.49512 -70.47134 625 ft 175 kts 154°
2026-04-30 02:16 41.48403 -70.46470 622 ft 174 kts 154°
2026-04-30 02:16 41.47321 -70.45722 579 ft 177 kts 142°
2026-04-30 02:16 41.46442 -70.44630 598 ft 172 kts 135°
2026-04-30 02:17 41.45561 -70.43555 149 ft 175 kts 135°
2026-04-30 02:17 41.44671 -70.42470 107 ft 173 kts 135°
2026-04-30 02:17 41.43778 -70.41387 112 ft 174 kts 136°
2026-04-30 02:17 41.42751 -70.40518 112 ft 175 kts 146°
2026-04-30 02:18 41.41707 -70.39676 111 ft 176 kts 146°
2026-04-30 02:18 41.40663 -70.38832 83 ft 177 kts 146°
2026-04-30 02:18 41.39617 -70.37990 100 ft 176 kts 146°
2026-04-30 02:18 41.38572 -70.37149 107 ft 176 kts 146°
2026-04-30 02:19 41.37526 -70.36307 107 ft 176 kts 146°
2026-04-30 02:19 41.36482 -70.35466 108 ft 175 kts 146°
2026-04-30 02:19 41.35437 -70.34628 109 ft 175 kts 146°
2026-04-30 02:19 41.34574 -70.33617 125 ft 156 kts 125°
2026-04-30 02:20 41.33907 -70.32424 111 ft 165 kts 124°
2026-04-30 02:20 41.33212 -70.31181 106 ft 169 kts 124°
2026-04-30 02:20 41.32508 -70.29914 106 ft 171 kts 124°
2026-04-30 02:20 41.31847 -70.28627 179 ft 163 kts 118°
2026-04-30 02:21 41.31477 -70.27777 294 ft 153 kts 115°
2026-04-30 02:21 41.31055 -70.26603 300 ft 130 kts 122°
2026-04-30 02:21 41.30527 -70.25525 234 ft 146 kts 122°
2026-04-30 02:21 41.29966 -70.24666 653 ft 97 kts 134°
2026-04-30 02:22 41.29611 -70.24246 570 ft 70 kts 132°
2026-04-30 02:22 41.29358 -70.23311 361 ft 132 kts 103°
2026-04-30 02:22 41.29147 -70.22189 313 ft 114 kts 101°
2026-04-30 02:22 41.29017 -70.20786 224 ft 131 kts 92°
2026-04-30 02:23 41.28983 -70.19931 193 ft 148 kts 92°
2026-04-30 02:23 41.28930 -70.18529 444 ft 139 kts 92°
2026-04-30 02:23 41.28882 -70.17523 634 ft 90 kts 93°
2026-04-30 02:23 41.28817 -70.16574 508 ft 126 kts 95°
2026-04-30 02:24 41.28722 -70.15278 366 ft 152 kts 95°
2026-04-30 02:24 41.28580 -70.14131 493 ft 147 kts 105°
2026-04-30 02:24 41.28216 -70.13015 579 ft 108 kts 108°
2026-04-30 02:24 41.28036 -70.12266 628 ft 77 kts 99°
2026-04-30 02:25 41.27965 -70.11502 482 ft 77 kts 96°
2026-04-30 02:25 41.27945 -70.11138 427 ft 29 kts 97°
2026-04-30 02:25 41.27920 -70.10751 420 ft 56 kts 96°
2026-04-30 02:25 41.27867 -70.10118 384 ft 81 kts 97°
2026-04-30 02:26 41.27488 -70.09517 384 ft 101 kts 174°
2026-04-30 02:26 41.26946 -70.09822 441 ft 81 kts 268°
2026-04-30 02:26 41.27298 -70.10468 282 ft 108 kts 347°
2026-04-30 02:26 41.27976 -70.10121 484 ft 111 kts 56°
2026-04-30 02:27 41.27972 -70.09221 505 ft 104 kts 135°
2026-04-30 02:27 41.27284 -70.09112 504 ft 108 kts 216°
2026-04-30 02:27 41.26918 -70.09931 578 ft 110 kts 288°
2026-04-30 02:27 41.27412 -70.10581 409 ft 113 kts
2026-04-30 02:28 41.27954 -70.10081 334 ft 71 kts 133°
2026-04-30 02:28 41.27668 -70.10027 147 ft 60 kts 185°
2026-04-30 02:28 41.27512 -70.10158 154 ft 8 kts 118°
2026-04-30 02:28 41.27512 -70.10146 134 ft 8 kts 32°
2026-04-30 02:29 41.27594 -70.10054 178 ft 25 kts 81°
2026-04-30 02:29 41.27284 -70.10107 270 ft 64 kts 232°
2026-04-30 02:29 41.27329 -70.10537 239 ft 53 kts 351°
2026-04-30 02:29 41.27547 -70.10325 136 ft 31 kts 63°
2026-04-30 02:30 41.27572 -70.10211 157 ft 3 kts 86°
2026-04-30 02:30 41.27578 -70.10187 60 ft 1 kts 79°
2026-04-30 02:30 41.27575 -70.10197 110 ft 1 kts 71°
2026-04-30 02:30 41.27801 -70.10116 358 ft 82 kts 18°
2026-04-30 02:31 41.28379 -70.09382 562 ft 143 kts 16°
2026-04-30 02:31 41.29039 -70.10188 494 ft 150 kts 281°
2026-04-30 02:31 41.29496 -70.11189 574 ft 134 kts 338°
2026-04-30 02:31 41.30363 -70.11573 573 ft 120 kts 349°
2026-04-30 02:32 41.31069 -70.11836 730 ft 99 kts 349°
2026-04-30 02:32 41.31780 -70.12092 647 ft 117 kts 349°
2026-04-30 02:32 41.32682 -70.12393 618 ft 148 kts 349°
2026-04-30 02:32 41.33472 -70.12674 672 ft 98 kts 349°
2026-04-30 02:33 41.34096 -70.12904 866 ft 109 kts 351°
2026-04-30 02:33 41.34972 -70.13163 934 ft 139 kts 350°
2026-04-30 02:33 41.35957 -70.13504 572 ft 143 kts 348°
2026-04-30 02:33 41.36880 -70.13847 579 ft 133 kts 348°
2026-04-30 02:34 41.37750 -70.14181 583 ft 128 kts 348°
2026-04-30 02:34 41.38599 -70.14505 583 ft 126 kts 348°
2026-04-30 02:34 41.39432 -70.14822 583 ft 124 kts 348°
2026-04-30 02:34 41.40306 -70.15127 700 ft 146 kts 351°
2026-04-30 02:35 41.41356 -70.15417 680 ft 168 kts 352°
2026-04-30 02:35 41.42559 -70.15756 617 ft 180 kts 350°
2026-04-30 02:35 41.43763 -70.16131 656 ft 165 kts 349°
2026-04-30 02:35 41.44849 -70.16478 657 ft 156 kts 349°
2026-04-30 02:36 41.45883 -70.16801 655 ft 151 kts 349°
2026-04-30 02:36 41.46534 -70.17527 985 ft 110 kts 292°
2026-04-30 02:36 41.46849 -70.18503 870 ft 109 kts 310°
2026-04-30 02:36 41.47450 -70.19251 658 ft 135 kts 321°
2026-04-30 02:37 41.48095 -70.20049 666 ft 123 kts 320°
2026-04-30 02:37 41.48707 -70.20834 668 ft 121 kts 320°
2026-04-30 02:37 41.49308 -70.21608 667 ft 119 kts 320°
2026-04-30 02:37 41.49911 -70.22367 667 ft 119 kts 320°
2026-04-30 02:38 41.50489 -70.23201 669 ft 124 kts 314°
2026-04-30 02:38 41.51044 -70.24073 661 ft 122 kts 314°
2026-04-30 02:38 41.51595 -70.24929 662 ft 121 kts 314°
2026-04-30 02:38 41.52147 -70.25771 662 ft 120 kts 314°
2026-04-30 02:39 41.52696 -70.26607 658 ft 119 kts 314°
2026-04-30 02:39 41.53246 -70.27425 662 ft 118 kts 314°
2026-04-30 02:39 41.53787 -70.28244 659 ft 118 kts 314°
2026-04-30 02:39 41.54332 -70.29086 662 ft 136 kts 314°
2026-04-30 02:40 41.55104 -70.30183 703 ft 183 kts 315°
2026-04-30 02:40 41.56018 -70.31421 719 ft 169 kts 316°
2026-04-30 02:40 41.56698 -70.32384 770 ft 134 kts 316°
2026-04-30 02:40 41.57322 -70.33269 779 ft 128 kts 316°
2026-04-30 02:41 41.57925 -70.34115 783 ft 124 kts 316°
2026-04-30 02:41 41.58513 -70.34945 782 ft 122 kts 316°
2026-04-30 02:41 41.59083 -70.35773 781 ft 121 kts 316°
2026-04-30 02:41 41.59584 -70.36649 781 ft 118 kts 307°
2026-04-30 02:42 41.60042 -70.37561 784 ft 118 kts 307°
2026-04-30 02:42 41.60449 -70.38538 781 ft 123 kts 297°
2026-04-30 02:42 41.60795 -70.39476 761 ft 102 kts 303°
2026-04-30 02:42 41.61161 -70.40376 694 ft 118 kts 302°
2026-04-30 02:43 41.61571 -70.41395 634 ft 128 kts 301°
2026-04-30 02:43 41.61948 -70.42450 776 ft 123 kts 297°
2026-04-30 02:43 41.62331 -70.43469 709 ft 125 kts 301°
2026-04-30 02:43 41.62727 -70.44494 891 ft 122 kts 300°
2026-04-30 02:44 41.63097 -70.45492 1167 ft 119 kts 295°
2026-04-30 02:44 41.63374 -70.46378 1232 ft 120 kts 290°
2026-04-30 02:44 41.63656 -70.47493 818 ft 135 kts 289°
2026-04-30 02:44 41.64221 -70.48470 648 ft 131 kts 319°
2026-04-30 02:45 41.64896 -70.49305 619 ft 135 kts 321°
2026-04-30 02:45 41.65583 -70.50191 494 ft 135 kts 319°
2026-04-30 02:45 41.66186 -70.50998 279 ft 92 kts 315°
2026-04-30 02:45 41.66434 -70.51328 170 ft 28 kts 309°
2026-04-30 02:46 41.66489 -70.51497 136 ft 18 kts 265°
2026-04-30 02:46 41.66477 -70.51671 129 ft 16 kts 265°
2026-04-30 02:46 41.66469 -70.51788 129 ft 7 kts 263°
2026-04-30 02:46 41.66458 -70.51943 133 ft 28 kts 264°
2026-04-30 02:47 41.66449 -70.52065 127 ft 12 kts 264°
2026-04-30 02:47 41.66478 -70.52112 125 ft 5 kts 340°
2026-04-30 02:47 41.66470 -70.52149 127 ft 5 kts 174°
2026-04-30 02:47 41.66471 -70.52148 127 ft 0 kts 177°
2026-04-30 02:48 41.66468 -70.52148 127 ft 0 kts 176°